Location: Saluda
(35.2377°N, 82.3468°W)
Time: 04:38:12
(UTC+00:00)

Vanguard 2 - Pass Details

Date: 04 October 2022
Orbit: 553 x 2933 km, 32.9° (Epoch: 26 November)

Event Time Altitude Azimuth Distance (km) Brightness Sun altitude
Rises 17:06:45 0° 231° (SW) 4,109 11.6 50.1°
Reaches altitude 10° 17:09:11 10° 226° (SW) 3,401 11.4 50.2°
Maximum altitude 17:17:58 54° 152° (SSE) 2,222 11.7 50.2°
Drops below altitude 10° 17:32:08 10° 81° (E) 5,325 11.8 50.1°
Sets 17:36:59 0° 78° (ENE) 6,566 12.1 50.0°
